Regional Weather Roundup
Issued by NWS

Home | Current Version | Previous Version | Graphics & Text | Print | Product List | Glossary On
Versions: 1 2 3 4 5 6 7 8 9 10 11 12 13 14 15 16 17 18 19 20 21 22 23 24 25 26 27
000
ASUS45 KTFX 051510
RWRMT
MONTANA REGIONAL WEATHER ROUNDUP
NATIONAL WEATHER SERVICE GREAT FALLS MT
900 AM MDT THU MAY 05 2016

NOTE: "FAIR" INDICATES FEW OR NO CLOUDS BELOW 12000 FEET WITH NO
SIGNIFICANT WEATHER AND/OR OBSTRUCTIONS TO VISIBILITY.

MTZ001>007-043-051600-
WEST OF THE DIVIDE

CITY           SKY/WX    TMP DP  RH WIND       PRES   REMARKS
KALISPELL      PTSUNNY   60  47  61 N3        29.92F
MISSOULA       CLOUDY    52  44  74 SW15G32   29.96F
BUTTE          CLOUDY    53  33  46 CALM      30.02S
MULLAN PASS    CLOUDY    46  41  82 CALM      30.02R
ANACONDA         N/A     61  36  39 SE3       29.99R
DEER LODGE       N/A     54  39  58 NE7       30.02R
EUREKA           N/A     61  46  59 CALM      29.95S
HAMILTON         N/A     57  37  47 SW7       29.95F
LIBBY            N/A     57  48  72 CALM      29.95R
PLAINS           N/A     59  50  72 CALM      29.94F
THOMPSON FALLS   N/A     56  52  86 CALM      29.99R
$$

MTZ008-052>055-051600-
SOUTHWEST MONTANA

CITY           SKY/WX    TMP DP  RH WIND       PRES   REMARKS
BOZEMAN        CLOUDY    60  40  47 S5        29.98S
DILLON         CLOUDY    54  36  50 SW8       30.01S
ENNIS          SUNNY     57  37  47 S7        30.08S
THREE FORKS      N/A     56  34  43 CALM      29.97S
TWIN BRIDGES     N/A     55  34  45 SE3       29.99S
$$

MTZ009-010-012-014-046-048-049-054-051600-
EAST SLOPES AND CENTRAL MONTANA

CITY           SKY/WX    TMP DP  RH WIND       PRES   REMARKS
CUT BANK       MOSUNNY   63  43  48 N8        29.92R
GREAT FALLS    CLOUDY    57  42  57 SW8       29.91S
MALMSTROM AFB  MOSUNNY   58  41  53 SW3       29.91S
HELENA         CLOUDY    56  38  50 CALM      29.97R
CHOTEAU          N/A     63  41  45 CALM      29.92S
CONRAD           N/A     63  53  69 NW8       29.94R
$$

MTZ011-013-016-021-045-047-050-051-051600-
NORTH CENTRAL MONTANA

CITY           SKY/WX    TMP DP  RH WIND       PRES   REMARKS
HAVRE          MOSUNNY   57  45  64 SW9       29.88R
LEWISTOWN      CLOUDY    59  40  49 VRB6      29.93S
N BAR RANCH      N/A     61  41  48 CALM      29.96S
$$

MTZ017>020-022>027-061-062-051600-
NORTHEAST MONTANA

CITY           SKY/WX    TMP DP  RH WIND       PRES   REMARKS
GLASGOW        SUNNY     65  46  50 S6        29.82S
JORDAN           N/A     67  49  52 W6        29.84S
SIDNEY         SUNNY     64  46  52 S12       29.86S
WOLF POINT     SUNNY     67  48  50 CALM      29.83S
POPLAR           N/A     70  46  43 S5        29.83F
SCOBEY           N/A     70  42  36 SE8       29.81F
$$

MTZ028>42-056>058-051600-
SOUTHCENTRAL AND SOUTHEAST MONTANA

CITY           SKY/WX    TMP DP  RH WIND       PRES   REMARKS
BAKER          SUNNY     70  47  43 S6        29.92S
BILLINGS       CLOUDY    59  39  47 SW15      29.93S
LIVINGSTON     CLOUDY    56  38  50 NW13      29.98S
MILES CITY     SUNNY     65  45  48 S9        29.88S
EKALAKA          N/A     71  47  42 SE3       29.93S
FORSYTH          N/A     64  46  52 CALM      29.88S
LAUREL           N/A     59  41  51 S9        29.93R
ROUNDUP          N/A     59  40  49 CALM      29.84S
$$

REGIONAL REPORTS...DAKOTAS

CITY           SKY/WX    TMP DP  RH WIND       PRES   REMARKS
WILLISTON      SUNNY     68  46  45 SW8       29.85F
MINOT          SUNNY     77  43  29 SW16      29.83F
DICKINSON      SUNNY     68  45  43 S12       29.89S
BEACH            N/A     70  46  43 S8        29.92F
CROSBY           N/A     72  46  40 SW14      29.84S
TIOGA            N/A     72  43  35 SW9       29.90F
WATFORD CITY     N/A     72  46  40 SW7       29.87S
BISMARCK       SUNNY     73  43  33 SW9       29.92F
GRAND FORKS    SUNNY     79  43  27 W20G25    29.83F
FARGO          SUNNY     68  40  35 S12       29.91S
BUFFALO SD       N/A     64  47  53 CALM      29.88S
RAPID CITY     SUNNY     62  46  55 SE6       29.96S
$$

REGIONAL REPORTS...WYOMING/IDAHO/WASHINGTON

CITY           SKY/WX    TMP DP  RH WIND       PRES   REMARKS
GILLETTE       SUNNY     65  45  48 S9        29.98F
SHERIDAN       CLOUDY    61  42  49 CALM      29.95S
BUFFALO WY     CLOUDY    65  36  34 SE3       30.00S
CODY           CLOUDY    63  34  34 SW9       30.02S
YELLOWSTONE LA   N/A     40  29  64 CALM      30.21R
IDAHO FALLS    CLOUDY    57  41  55 N7        29.99S
SALMON         CLOUDY    54  36  50 CALM      29.97F
BOISE          CLOUDY    58  45  62 CALM      29.87F
SPOKANE        PTSUNNY   56  51  84 VRB6      29.94S
$$

REGIONAL REPORTS...ALBERTA

CITY           SKY/WX    TMP DP  RH WIND       PRES   REMARKS
EDMONTON       MOSUNNY   52  32  46 NW12G17   29.99R
CALGARY        CLOUDY    50  28  43 N20G30    29.99R
LETHBRIDGE     PTSUNNY   61  39  44 NW14G21   29.93R
MEDICINE HAT   MOSUNNY   61  43  51 NW13      29.86S
$$

REGIONAL REPORTS...SASKATCHEWAN

CITY           SKY/WX    TMP DP  RH WIND       PRES   REMARKS
SWIFT CURRENT  SUNNY     72  39  30 W15       29.79S
REGINA         PTSUNNY   72  41  33 S6        29.77F
SASKATOON      MOSUNNY   72  41  33 NE7       29.73S
$$




USA.gov is the U.S. government's official web portal to all federal, state and local government web resources and services.